period_start,C,m1,H,J0,J1,J2,J3,J4,J5,JA,JB,JC,JD,JJ,JK,JN,#
2014-10-15 00:02:37,0.04,2.90,0.00,23.24,27.65,30.46,4.71,26.69,1015.17,2032.99,2389.13,2574.91,2769.98,349.98,346.77,30.45,0000 0000 0000 0000 000000
2014-10-15 00:07:38,0.09,2.91,0.00,23.27,27.65,30.47,4.79,26.83,1015.16,2032.99,2388.79,2574.18,2769.36,350.22,347.08,30.48,0000 0000 0000 0000 000000
2014-10-15 00:12:39,0.03,2.91,0.00,23.29,27.65,30.47,4.72,26.73,1015.17,2032.99,2388.03,2574.00,2769.00,349.78,346.62,30.51,0000 0000 0000 0000 000000
2014-10-15 00:17:40,0.10,2.91,0.00,23.26,27.65,30.47,4.81,26.82,1015.16,2032.99,2387.40,2573.53,2768.48,349.64,346.58,30.54,0000 0000 0000 0000 000000
2014-10-15 00:22:42,0.03,2.91,0.00,23.23,27.65,30.45,4.73,26.70,1015.15,2032.99,2386.95,2573.03,2768.02,349.98,346.89,30.57,0000 0000 0000 0000 000000
2014-10-15 00:27:42,0.06,2.91,0.00,23.27,27.65,30.47,4.83,26.72,1015.16,2032.99,2386.16,2572.92,2767.77,350.25,346.95,30.60,0000 0000 0000 0000 000000
2014-10-15 00:32:44,0.09,2.92,0.00,23.28,27.65,30.48,4.83,26.73,1015.15,2032.98,2385.73,2572.14,2767.06,350.01,347.06,30.63,0000 0000 0000 0000 000000
2014-10-15 00:37:45,0.03,2.92,0.00,23.24,27.65,30.45,4.82,26.88,1015.15,2032.99,2385.01,2571.99,2766.83,350.19,347.04,30.66,0000 0000 0000 0000 000000
2014-10-15 00:42:46,0.06,2.92,0.00,23.22,27.65,30.46,4.85,26.84,1015.16,2032.99,2384.64,2571.73,2766.11,350.28,347.20,30.69,0000 0000 0000 0000 000000
2014-10-15 00:47:48,0.06,2.92,0.00,23.25,27.65,30.49,4.76,26.84,1015.15,2032.99,2384.02,2571.05,2766.00,349.88,346.76,30.72,0000 0000 0000 0000 000000
2014-10-15 00:52:49,0.07,2.92,0.00,23.25,27.65,30.47,4.81,26.77,1015.15,2032.99,2383.41,2570.97,2765.49,350.22,347.15,30.74,0000 0000 0000 0000 000000
2014-10-15 00:57:50,0.06,2.92,0.00,23.26,27.65,30.46,4.72,26.78,1015.15,2032.99,2382.94,2570.44,2765.01,349.98,346.82,30.77,0000 0000 0000 0000 000000
2014-10-15 01:02:51,0.04,2.93,0.00,23.23,27.65,30.45,4.77,26.74,1015.15,2032.99,2382.27,2570.01,2764.88,350.04,346.95,30.80,0000 0000 0000 0000 000000
2014-10-15 01:07:53,0.04,2.93,0.00,23.23,27.65,30.44,4.80,26.77,1015.15,2032.99,2381.93,2569.94,2764.19,350.17,347.12,30.83,0000 0000 0000 0000 000000
2014-10-15 01:12:54,0.08,2.93,0.00,23.28,27.65,30.45,4.73,26.75,1015.15,2032.99,2381.21,2569.40,2763.99,349.46,346.29,30.86,0000 0000 0000 0000 000000
2014-10-15 01:17:55,0.05,2.93,0.00,23.25,27.65,30.44,4.78,26.73,1015.16,2032.99,2380.76,2569.01,2763.41,349.38,346.36,30.89,0000 0000 0000 0000 000000
2014-10-15 01:22:57,0.05,2.93,0.00,23.24,27.65,30.44,4.82,26.82,1015.16,2032.99,2380.05,2568.83,2763.01,350.37,347.19,30.92,0000 0000 0000 0000 000000
2014-10-15 01:27:58,0.07,2.94,0.00,23.29,27.65,30.45,4.75,26.70,1015.16,2032.99,2379.68,2568.12,2762.84,349.56,346.42,30.95,0000 0000 0000 0000 000000
2014-10-15 01:33:00,0.05,2.94,0.00,23.26,27.65,30.44,4.70,26.73,1015.17,2032.99,2379.02,2568.00,2762.17,349.94,346.90,30.98,0000 0000 0000 0000 000000
2014-10-15 01:38:01,0.07,2.94,0.00,23.21,27.65,30.41,4.82,26.93,1015.17,2032.99,2378.46,2567.69,2761.98,349.56,346.45,31.01,0000 0000 0000 0000 000000
2014-10-15 01:43:02,0.05,2.94,0.00,23.26,27.65,30.45,4.75,26.79,1015.18,2032.99,2378.00,2567.07,2761.63,349.94,346.77,31.04,0000 0000 0000 0000 000000
2014-10-15 01:48:03,0.05,2.94,0.00,23.27,27.65,30.45,4.78,26.75,1015.26,2032.99,2377.53,2567.00,2761.02,350.05,347.04,31.07,0000 0000 0000 0000 000000
2014-10-15 01:53:05,0.04,2.94,0.00,23.24,27.65,30.44,4.74,26.77,1015.37,2032.99,2377.00,2566.72,2760.91,350.18,347.08,31.10,0000 0000 0000 0000 000000
2014-10-15 01:58:06,0.10,2.95,0.00,23.26,27.65,30.41,4.72,26.73,1015.26,2032.99,2376.45,2566.04,2760.15,349.87,346.70,31.13,0000 0000 0000 0000 000000
2014-10-15 02:03:08,0.01,2.95,0.00,23.27,27.64,30.44,4.79,26.74,1015.26,2032.99,2375.99,2565.99,2759.99,349.93,346.97,31.15,0000 0000 0000 0000 000000
2014-10-15 02:08:09,0.09,2.95,0.00,23.25,27.63,30.43,4.73,26.62,1015.27,2032.99,2375.35,2565.58,2759.61,350.16,347.02,31.18,0000 0000 0000 0000 000000
2014-10-15 02:13:11,0.04,2.95,0.00,23.31,27.62,30.46,4.74,26.77,1015.37,2032.99,2374.94,2565.03,2759.03,349.74,346.56,31.21,0000 0000 0000 0000 000000
2014-10-15 02:18:12,0.04,2.95,0.00,23.32,27.62,30.43,4.68,26.71,1015.51,2032.99,2374.15,2564.99,2758.93,349.71,346.67,31.24,0000 0000 0000 0000 000000
2014-10-15 02:23:13,0.08,2.95,0.00,23.27,27.62,30.39,4.71,26.72,1015.55,2032.99,2373.84,2564.55,2758.22,349.61,346.60,31.27,0000 0000 0000 0000 000000
2014-10-15 02:28:14,0.04,2.96,0.00,23.25,27.62,30.42,4.71,26.68,1015.51,2032.99,2373.07,2564.03,2758.00,349.97,347.38,31.30,0000 0000 0000 0000 000000
2014-10-15 02:33:16,0.01,2.96,0.00,23.26,27.62,30.40,4.74,26.66,1015.50,2032.99,2372.95,2563.99,2757.79,349.80,346.74,31.33,0000 0000 0000 0000 000000
2014-10-15 02:38:17,0.11,2.96,0.00,23.27,27.62,30.40,4.78,26.90,1015.44,2032.99,2372.15,2563.43,2757.07,350.33,347.14,31.36,0000 0000 0000 0000 000000
2014-10-15 02:43:18,0.01,2.96,0.00,23.26,27.62,30.41,4.77,26.73,1015.53,2032.99,2371.91,2563.02,2756.99,349.81,346.68,31.39,0000 0000 0000 0000 000000
2014-10-15 02:48:19,0.06,2.96,0.00,23.27,27.62,30.40,4.83,26.76,1015.45,2032.99,2371.12,2562.98,2756.47,349.99,346.91,31.42,0000 0000 0000 0000 000000
2014-10-15 02:53:21,0.07,2.96,0.00,23.23,27.62,30.39,4.85,26.82,1015.44,2032.99,2370.82,2562.44,2756.02,350.29,347.30,31.45,0000 0000 0000 0000 000000
2014-10-15 02:58:22,0.05,2.97,0.00,23.28,27.61,30.38,4.78,26.79,1015.44,2032.99,2370.07,2562.01,2755.86,350.07,347.14,31.48,0000 0000 0000 0000 000000
2014-10-15 03:03:23,0.06,2.97,0.00,23.31,27.60,30.41,4.70,26.73,1015.43,2032.99,2369.67,2561.92,2755.14,349.35,346.15,31.51,0000 0000 0000 0000 000000
2014-10-15 03:08:24,0.07,2.97,0.00,23.27,27.60,30.39,4.75,26.77,1015.31,2032.99,2369.02,2561.19,2754.98,350.04,346.73,31.54,0000 0000 0000 0000 000000
2014-10-15 03:13:25,0.07,2.97,0.00,23.28,27.60,30.38,4.84,26.72,1015.27,2032.99,2368.49,2561.00,2754.43,350.06,346.96,31.57,0000 0000 0000 0000 000000
2014-10-15 03:18:26,0.01,2.97,0.00,23.28,27.60,30.37,4.80,26.71,1015.25,2033.00,2368.00,2560.94,2754.01,350.18,347.01,31.59,0000 0000 0000 0000 000000
2014-10-15 03:23:27,0.09,2.98,0.00,23.28,27.60,30.37,4.74,26.73,1015.24,2033.00,2367.50,2560.28,2753.82,349.92,346.65,31.62,0000 0000 0000 0000 000000
2014-10-15 03:28:29,0.03,2.98,0.00,23.31,27.60,30.39,4.68,26.75,1015.22,2033.00,2367.01,2560.00,2753.09,349.48,346.21,31.65,0000 0000 0000 0000 000000
2014-10-15 03:33:30,0.03,2.98,0.00,23.31,27.60,30.38,4.80,26.77,1015.26,2033.00,2366.78,2559.86,2752.99,350.37,347.26,31.68,0000 0000 0000 0000 000000
2014-10-15 03:38:31,0.11,2.98,0.00,23.26,27.59,30.35,4.81,26.89,1015.22,2033.00,2366.02,2559.12,2752.47,350.42,347.12,31.71,0000 0000 0000 0000 000000
2014-10-15 03:43:32,0.04,2.98,0.00,23.26,27.58,30.37,4.78,26.69,1015.29,2033.00,2365.40,2559.00,2752.00,350.31,347.22,31.74,0000 0000 0000 0000 000000
2014-10-15 03:48:34,0.02,2.98,0.00,23.27,27.57,30.35,4.77,26.66,1015.43,2033.00,2364.94,2558.88,2751.78,349.86,346.97,31.77,0000 0000 0000 0000 000000
2014-10-15 03:53:35,0.11,2.99,0.00,23.27,27.57,30.35,4.78,26.75,1015.52,2033.00,2364.24,2558.18,2751.11,349.92,346.97,31.80,0000 0000 0000 0000 000000
2014-10-15 03:58:36,0.02,2.99,0.00,23.30,27.57,30.38,4.74,26.74,1015.59,2033.00,2363.72,2557.99,2750.99,350.25,346.99,31.83,0000 0000 0000 0000 000000
2014-10-15 04:03:37,0.09,2.99,0.00,23.27,27.57,30.35,4.75,26.77,1015.63,2033.00,2363.03,2557.55,2750.38,349.75,346.81,31.86,0000 0000 0000 0000 000000
2014-10-15 04:08:38,0.06,2.99,0.00,23.24,27.57,30.36,4.82,26.79,1015.64,2033.00,2362.44,2557.03,2750.00,350.47,347.45,31.89,0000 0000 0000 0000 000000
2014-10-15 04:13:39,0.02,2.99,0.00,23.28,27.57,30.35,4.71,26.73,1015.63,2033.00,2361.93,2556.92,2749.74,349.57,346.58,31.92,0000 0000 0000 0000 000000
2014-10-15 04:18:40,0.12,3.00,0.00,23.28,27.57,30.38,4.77,26.73,1015.64,2033.00,2361.14,2556.16,2749.03,350.16,346.95,31.95,0000 0000 0000 0000 000000
2014-10-15 04:23:42,0.03,3.00,0.00,23.27,27.57,30.37,4.71,26.69,1015.64,2033.00,2360.77,2556.00,2748.83,349.63,346.74,31.97,0000 0000 0000 0000 000000
2014-10-15 04:28:43,0.09,3.00,0.00,23.28,27.57,30.35,4.76,26.72,1015.64,2033.00,2360.02,2555.57,2748.06,349.58,346.69,32.00,0000 0000 0000 0000 000000
2014-10-15 04:33:45,0.06,3.00,0.00,23.28,27.57,30.34,4.81,26.87,1015.64,2033.00,2359.32,2555.02,2747.95,350.34,347.38,32.03,0000 0000 0000 0000 000000
2014-10-15 04:38:46,0.07,3.00,0.00,23.26,27.57,30.33,4.77,26.96,1015.64,2033.00,2358.70,2554.88,2747.20,349.63,346.71,32.06,0000 0000 0000 0000 000000
2014-10-15 04:43:47,0.07,3.01,0.00,23.31,27.57,30.36,4.79,26.82,1015.64,2033.00,2358.06,2554.17,2746.97,350.28,347.15,32.09,0000 0000 0000 0000 000000
2014-10-15 04:48:49,0.07,3.01,0.00,23.29,27.56,30.36,4.75,26.73,1015.64,2033.00,2357.50,2553.98,2746.23,349.80,346.78,32.12,0000 0000 0000 0000 000000
2014-10-15 04:53:50,0.05,3.01,0.00,23.27,27.56,30.33,4.80,26.77,1015.64,2033.00,2356.99,2553.50,2746.00,349.99,347.06,32.15,0000 0000 0000 0000 000000
2014-10-15 04:58:51,0.08,3.01,0.00,23.28,27.55,30.32,4.75,26.74,1015.65,2033.00,2356.26,2553.03,2745.58,349.85,346.96,32.18,0000 0000 0000 0000 000000
2014-10-15 05:03:52,0.03,3.01,0.00,23.27,27.55,30.36,4.84,26.82,1015.65,2033.00,2355.84,2552.92,2745.02,350.30,347.31,32.21,0000 0000 0000 0000 000000
2014-10-15 05:08:54,0.10,3.02,0.00,23.29,27.55,30.36,4.82,26.77,1015.66,2033.00,2355.13,2552.22,2744.73,350.24,347.42,32.24,0000 0000 0000 0000 000000
2014-10-15 05:13:55,0.06,3.02,0.00,23.30,27.55,30.35,4.73,26.68,1015.66,2033.00,2354.46,2551.99,2744.04,349.71,346.79,32.27,0000 0000 0000 0000 000000
2014-10-15 05:18:56,0.05,3.02,0.00,23.26,27.55,30.34,4.80,26.80,1015.67,2033.00,2353.94,2551.65,2743.90,350.09,347.21,32.30,0000 0000 0000 0000 000000
2014-10-15 05:23:58,0.09,3.02,0.00,23.25,27.55,30.35,4.81,26.82,1015.67,2033.00,2353.13,2551.03,2743.13,350.37,347.35,32.33,0000 0000 0000 0000 000000
2014-10-15 05:28:59,0.01,3.02,0.00,23.29,27.55,30.34,4.74,26.79,1015.66,2033.01,2352.88,2550.96,2743.00,349.88,346.99,32.36,0000 0000 0000 0000 000000
2014-10-15 05:34:00,0.12,3.03,0.00,23.27,27.55,30.34,4.76,26.87,1015.69,2033.00,2352.10,2550.29,2742.38,350.11,346.95,32.39,0000 0000 0000 0000 000000
2014-10-15 05:39:01,0.05,3.03,0.00,23.28,27.55,30.32,4.77,26.88,1015.67,2033.00,2351.39,2549.99,2742.00,349.65,346.68,32.41,0000 0000 0000 0000 000000
2014-10-15 05:44:03,0.06,3.03,0.00,23.28,27.55,30.31,4.72,26.73,1015.72,2033.01,2350.96,2549.74,2741.61,349.94,346.92,32.44,0000 0000 0000 0000 000000
2014-10-15 05:49:04,0.09,3.03,0.00,23.26,27.55,30.32,4.83,26.73,1015.74,2033.02,2350.27,2549.07,2741.03,349.94,347.12,32.47,0000 0000 0000 0000 000000
2014-10-15 05:54:05,0.01,3.03,0.00,23.33,27.55,30.34,4.72,26.73,1015.70,2033.03,2349.89,2548.99,2740.88,349.61,346.45,32.50,0000 0000 0000 0000 000000
2014-10-15 05:59:06,0.12,3.04,0.00,23.34,27.55,30.32,4.81,26.70,1015.78,2033.01,2349.09,2548.41,2740.09,350.19,347.19,32.53,0000 0000 0000 0000 000000
2014-10-15 06:04:08,0.04,3.04,0.00,23.28,27.55,30.32,4.77,26.76,1015.96,2033.00,2348.53,2548.01,2739.86,349.78,347.05,32.56,0000 0000 0000 0000 000000
2014-10-15 06:09:09,0.07,3.04,0.00,23.27,27.54,30.30,4.72,26.66,1015.90,2033.00,2347.95,2547.68,2739.11,349.51,346.57,32.59,0000 0000 0000 0000 000000
2014-10-15 06:14:10,0.07,3.04,0.00,23.27,27.54,30.30,4.76,26.77,1015.88,2033.00,2347.11,2547.03,2738.94,349.93,346.96,32.62,0000 0000 0000 0000 000000
2014-10-15 06:19:12,0.07,3.05,0.00,23.27,27.54,30.31,4.77,26.64,1016.04,2033.01,2346.59,2546.91,2738.19,349.55,346.83,32.65,0000 0000 0000 0000 000000
2014-10-15 06:24:13,0.07,3.05,0.00,23.30,27.54,30.33,4.72,26.72,1016.08,2033.00,2345.97,2546.12,2737.92,349.58,346.78,32.68,0000 0000 0000 0000 000000
2014-10-15 06:29:14,0.07,3.05,0.00,23.25,27.54,30.31,4.79,26.76,1016.12,2033.00,2345.17,2545.98,2737.21,349.61,347.09,32.71,0000 0000 0000 0000 000000
2014-10-15 06:34:15,0.09,3.05,0.00,23.23,27.54,30.31,4.73,26.69,1016.13,2033.00,2344.63,2545.28,2736.97,350.01,347.17,32.74,0000 0000 0000 0000 000000
2014-10-15 06:39:17,0.05,3.06,0.00,23.24,27.54,30.32,4.79,26.89,1016.13,2033.00,2343.93,2545.00,2736.19,350.34,347.54,32.77,0000 0000 0000 0000 000000
2014-10-15 06:44:18,0.08,3.06,0.00,23.27,27.54,30.31,4.77,26.73,1016.13,2033.00,2343.25,2544.60,2735.99,349.99,347.17,32.80,0000 0000 0000 0000 000000
2014-10-15 06:49:19,0.07,3.06,0.00,23.26,27.54,30.33,4.72,26.69,1016.13,2033.00,2342.77,2544.02,2735.37,349.91,347.24,32.82,0000 0000 0000 0000 000000
2014-10-15 06:54:21,0.04,3.06,0.00,23.28,27.54,30.34,4.82,26.88,1016.13,2033.01,2342.03,2543.94,2735.00,350.15,347.37,32.85,0000 0000 0000 0000 000000
2014-10-15 06:59:22,0.13,3.06,0.00,23.28,27.54,30.32,4.80,26.77,1016.13,2033.00,2341.21,2543.14,2734.31,350.36,347.41,32.88,0000 0000 0000 0000 000000
2014-10-15 07:04:23,0.05,3.07,0.00,23.25,27.54,30.31,4.78,26.71,1016.13,2033.00,2340.52,2542.89,2733.96,349.83,347.13,32.91,0000 0000 0000 0000 000000
2014-10-15 07:09:25,0.09,3.07,0.00,23.26,27.53,30.30,4.81,26.76,1016.13,2033.00,2339.97,2542.14,2733.26,349.93,347.07,32.94,0000 0000 0000 0000 000000
2014-10-15 07:14:26,0.04,3.07,0.00,23.27,27.53,30.30,4.83,26.82,1016.13,2033.00,2339.17,2541.99,2732.98,349.99,347.30,32.97,0000 0000 0000 0000 000000
2014-10-15 07:19:27,0.11,3.07,0.00,23.23,27.52,30.29,4.79,26.69,1016.13,2033.00,2338.66,2541.39,2732.25,350.05,347.21,33.00,0000 0000 0000 0000 000000
2014-10-15 07:24:28,0.03,3.08,0.00,23.25,27.52,30.33,4.74,26.71,1016.14,2033.00,2338.01,2541.01,2731.99,349.59,346.90,33.03,0000 0000 0000 0000 000000
2014-10-15 07:29:29,0.09,3.08,0.00,23.27,27.52,30.31,4.73,26.77,1016.14,2033.00,2337.41,2540.77,2731.50,349.70,346.69,33.06,0000 0000 0000 0000 000000
2014-10-15 07:34:31,0.06,3.08,0.00,23.24,27.52,30.31,4.78,26.80,1016.16,2033.00,2336.95,2540.05,2731.00,349.80,346.98,33.09,0000 0000 0000 0000 000000
2014-10-15 07:39:32,0.07,3.08,0.00,23.26,27.52,30.31,4.81,26.92,1016.14,2033.00,2336.18,2539.97,2730.55,349.97,347.17,33.12,0000 0000 0000 0000 000000
2014-10-15 07:44:33,0.09,3.08,0.00,23.26,27.52,30.29,4.81,26.77,1016.16,2033.00,2335.57,2539.35,2730.02,350.23,347.62,33.15,0000 0000 0000 0000 000000
2014-10-15 07:49:34,0.03,3.09,0.00,23.24,27.52,30.30,4.78,26.76,1016.24,2033.00,2334.94,2539.00,2729.75,350.07,347.32,33.18,0000 0000 0000 0000 000000
2014-10-15 07:54:35,0.11,3.09,0.00,23.28,27.52,30.31,4.79,26.82,1016.29,2033.00,2334.14,2538.56,2729.05,349.61,346.82,33.21,0000 0000 0000 0000 000000
2014-10-15 07:59:36,0.04,3.09,0.00,23.28,27.52,30.30,4.73,26.67,1016.39,2033.01,2333.78,2538.03,2728.89,349.80,347.08,33.24,0000 0000 0000 0000 000000
2014-10-15 08:04:37,0.06,3.09,0.00,23.26,27.52,30.28,4.80,26.63,1016.40,2033.00,2333.05,2537.93,2728.13,350.13,347.41,33.26,0000 0000 0000 0000 000000
2014-10-15 08:09:38,0.09,3.09,0.00,23.27,27.52,30.31,4.74,26.64,1016.42,2033.00,2332.43,2537.17,2727.97,349.70,347.05,33.29,0000 0000 0000 0000 000000
2014-10-15 08:14:40,0.04,3.10,0.00,23.27,27.52,30.31,4.81,26.70,1016.41,2033.00,2331.93,2537.00,2727.28,350.38,347.77,33.32,0000 0000 0000 0000 000000
2014-10-15 08:19:41,0.10,3.10,0.00,23.28,27.52,30.31,4.82,26.72,1016.50,2033.00,2331.10,2536.43,2726.98,349.61,347.01,33.35,0000 0000 0000 0000 000000
2014-10-15 08:24:42,0.07,3.10,0.00,23.28,27.52,30.31,4.81,26.63,1016.51,2033.00,2330.58,2536.01,2726.29,350.33,347.35,33.38,0000 0000 0000 0000 000000
2014-10-15 08:29:44,0.02,3.10,0.00,23.24,27.52,30.30,4.80,26.80,1016.56,2033.00,2330.00,2535.90,2725.99,349.91,347.39,33.41,0000 0000 0000 0000 000000
2014-10-15 08:34:45,0.13,3.11,0.00,23.26,27.52,30.31,4.80,26.72,1016.55,2033.00,2329.28,2535.14,2725.48,349.78,347.20,33.44,0000 0000 0000 0000 000000
2014-10-15 08:39:46,0.02,3.11,0.00,23.27,27.52,30.28,4.74,26.99,1016.61,2033.00,2328.88,2534.99,2725.01,349.18,346.55,33.47,0000 0000 0000 0000 000000
2014-10-15 08:44:48,0.09,3.11,0.00,23.26,27.52,30.28,4.81,26.68,1016.62,2033.00,2328.11,2534.55,2724.83,349.93,347.45,33.50,0000 0000 0000 0000 000000
2014-10-15 08:49:49,0.06,3.11,0.00,23.27,27.52,30.30,4.80,26.68,1016.62,2033.00,2327.78,2534.03,2724.13,349.65,346.86,33.53,0000 0000 0000 0000 000000
2014-10-15 08:54:51,0.03,3.11,0.00,23.25,27.52,30.30,4.76,26.74,1016.62,2033.00,2327.04,2533.97,2723.98,349.10,346.62,33.56,0000 0000 0000 0000 000000
2014-10-15 08:59:52,0.12,3.11,0.00,23.23,27.52,30.32,4.87,26.73,1016.62,2033.00,2326.54,2533.32,2723.41,350.87,348.39,33.59,0000 0000 0000 0000 000000
2014-10-15 09:04:53,0.02,3.12,0.00,23.27,27.52,30.31,4.76,26.66,1016.62,2033.00,2325.96,2533.01,2723.00,350.16,347.44,33.62,0000 0000 0000 0000 000000
2014-10-15 09:09:54,0.09,3.12,0.00,23.27,27.52,30.30,4.70,26.64,1016.62,2033.01,2325.14,2532.77,2722.58,349.99,347.28,33.65,0000 0000 0000 0000 000000
2014-10-15 09:14:56,0.06,3.12,0.00,23.25,27.52,30.30,4.67,26.82,1016.63,2033.00,2324.81,2532.09,2722.03,349.01,346.56,33.67,0000 0000 0000 0000 000000
2014-10-15 09:19:57,0.04,3.12,0.00,23.27,27.52,30.30,4.73,26.72,1016.63,2033.00,2324.06,2531.98,2721.75,350.22,347.62,33.70,0000 0000 0000 0000 000000
2014-10-15 09:24:58,0.09,3.12,0.00,23.23,27.52,30.30,4.77,26.67,1016.64,2033.00,2323.70,2531.46,2721.10,349.67,347.24,33.73,0000 0000 0000 0000 000000
2014-10-15 09:30:00,0.04,3.13,0.00,23.26,27.52,30.31,4.73,26.68,1016.65,2033.00,2323.01,2531.02,2720.96,349.82,347.22,33.76,0000 0000 0000 0000 000000
2014-10-15 09:35:01,0.07,3.13,0.00,23.27,27.52,30.30,4.83,26.96,1016.65,2033.01,2322.36,2530.92,2720.37,349.87,347.16,33.79,0000 0000 0000 0000 000000
2014-10-15 09:40:02,0.06,3.13,0.00,23.23,27.52,30.28,4.75,26.82,1016.65,2033.00,2321.93,2530.14,2720.00,350.06,347.73,33.82,0000 0000 0000 0000 000000
2014-10-15 09:45:03,0.06,3.13,0.00,23.25,27.52,30.30,4.76,26.74,1016.65,2033.00,2321.15,2529.99,2719.60,350.00,347.56,33.85,0000 0000 0000 0000 000000
2014-10-15 09:50:04,0.09,3.14,0.00,23.27,27.52,30.32,4.72,26.68,1016.67,2033.00,2320.69,2529.48,2719.02,349.66,346.69,33.88,0000 0000 0000 0000 000000
2014-10-15 09:55:05,0.05,3.14,0.00,23.27,27.52,30.31,4.80,26.69,1016.71,2033.00,2320.02,2529.02,2718.68,349.79,347.33,33.91,0000 0000 0000 0000 000000
2014-10-15 10:00:07,0.04,3.14,0.00,23.27,27.52,30.31,4.79,26.73,1016.75,2033.01,2319.63,2528.98,2718.04,350.22,347.64,33.94,0000 0000 0000 0000 000000
2014-10-15 10:05:08,0.08,3.14,0.00,23.24,27.52,30.31,4.76,26.70,1016.88,2033.00,2318.99,2528.26,2717.94,349.95,347.15,33.97,0000 0000 0000 0000 000000
2014-10-15 10:10:09,0.07,3.14,0.00,23.25,27.52,30.30,4.76,26.80,1016.96,2033.00,2318.30,2528.00,2717.21,349.93,347.44,34.00,0000 0000 0000 0000 000000
2014-10-15 10:15:10,0.02,3.14,0.00,23.27,27.52,30.31,4.75,26.69,1017.06,2033.00,2317.92,2527.88,2716.99,349.96,347.47,34.03,0000 0000 0000 0000 000000
2014-10-15 10:20:12,0.12,3.15,0.00,23.25,27.52,30.29,4.78,26.80,1017.09,2033.00,2317.12,2527.14,2716.41,349.78,347.33,34.06,0000 0000 0000 0000 000000
2014-10-15 10:25:13,0.03,3.15,0.00,23.22,27.52,30.29,4.81,26.77,1017.10,2033.00,2316.75,2526.96,2716.01,350.02,347.44,34.08,0000 0000 0000 0000 000000
2014-10-15 10:30:14,0.10,3.15,0.00,23.26,27.52,30.31,4.85,26.72,1017.10,2033.00,2316.02,2526.31,2715.64,349.88,347.13,34.11,0000 0000 0000 0000 000000
2014-10-15 10:35:16,0.05,3.15,0.00,23.27,27.52,30.32,4.75,26.77,1017.10,2033.00,2315.46,2526.01,2715.03,349.78,347.36,34.14,0000 0000 0000 0000 000000
2014-10-15 10:40:17,0.03,3.15,0.00,23.26,27.52,30.31,4.72,26.96,1017.10,2033.00,2314.99,2525.78,2714.90,349.78,347.23,34.17,0000 0000 0000 0000 000000
2014-10-15 10:45:19,0.11,3.16,0.00,23.28,27.52,30.32,4.81,26.77,1017.10,2033.00,2314.23,2525.05,2714.11,349.63,347.21,34.20,0000 0000 0000 0000 000000
2014-10-15 10:50:20,0.02,3.16,0.00,23.27,27.52,30.30,4.77,26.77,1017.10,2033.00,2313.85,2524.97,2713.96,349.66,347.68,34.23,0000 0000 0000 0000 000000
2014-10-15 10:55:21,0.11,3.16,0.00,23.27,27.52,30.30,4.76,26.73,1017.10,2033.00,2313.06,2524.32,2713.23,349.70,347.35,34.26,0000 0000 0000 0000 000000
2014-10-15 11:00:23,0.05,3.16,0.00,23.27,27.52,30.31,4.73,27.07,1017.10,2033.00,2312.54,2524.01,2713.00,349.59,347.57,34.29,0000 0000 0000 0000 000000
2014-10-15 11:05:24,0.07,3.16,0.00,23.26,27.52,30.30,4.74,27.13,1017.10,2033.00,2311.91,2523.77,2712.51,350.18,347.66,34.32,0000 0000 0000 0000 000000
2014-10-15 11:10:25,0.08,3.17,0.00,23.24,27.52,30.30,4.88,27.08,1017.10,2033.00,2311.11,2523.08,2712.01,350.49,348.07,34.35,0000 0000 0000 0000 000000
2014-10-15 11:15:26,0.01,3.17,0.00,23.28,27.52,30.30,4.80,27.04,1017.10,2033.00,2310.85,2522.99,2711.88,350.04,347.67,34.38,0000 0000 0000 0000 000000
2014-10-15 11:20:27,0.12,3.17,0.00,23.27,27.52,30.31,4.88,27.01,1017.10,2033.00,2310.06,2522.37,2711.09,350.22,347.79,34.41,0000 0000 0000 0000 000000
2014-10-15 11:25:28,0.04,3.17,0.00,23.25,27.52,30.31,4.79,26.94,1017.10,2033.00,2309.49,2522.01,2710.93,349.99,347.41,34.44,0000 0000 0000 0000 000000
2014-10-15 11:30:29,0.05,3.18,0.00,23.29,27.52,30.32,4.80,26.87,1017.10,2033.00,2308.98,2521.88,2710.27,350.08,347.63,34.47,0000 0000 0000 0000 000000
2014-10-15 11:35:31,0.09,3.18,0.00,23.29,27.52,30.31,4.81,26.93,1017.11,2033.00,2308.23,2521.11,2709.95,349.63,347.21,34.50,0000 0000 0000 0000 000000
2014-10-15 11:40:32,0.04,3.18,0.00,23.30,27.52,30.30,4.78,26.90,1017.11,2033.00,2307.90,2520.97,2709.23,349.56,347.21,34.52,0000 0000 0000 0000 000000
2014-10-15 11:45:33,0.09,3.18,0.00,23.27,27.52,30.30,4.79,26.82,1017.11,2033.00,2307.12,2520.52,2708.99,350.18,347.63,34.55,0000 0000 0000 0000 000000
2014-10-15 11:50:35,0.07,3.18,0.00,23.24,27.52,30.33,4.77,26.77,1017.11,2033.00,2306.66,2520.01,2708.58,350.17,347.60,34.58,0000 0000 0000 0000 000000
2014-10-15 11:55:36,0.03,3.19,0.00,23.28,27.52,30.33,4.76,26.79,1017.11,2033.00,2306.01,2519.94,2708.03,350.05,347.56,34.61,0000 0000 0000 0000 000000
2014-10-15 12:00:37,0.11,3.19,0.00,23.26,27.52,30.29,4.80,26.85,1017.11,2033.00,2305.38,2519.18,2707.74,350.49,347.98,34.64,0000 0000 0000 0000 000000
2014-10-15 12:05:38,0.04,3.19,0.00,23.25,27.52,30.29,4.81,26.85,1017.11,2033.00,2304.86,2518.97,2707.05,350.24,347.74,34.67,0000 0000 0000 0000 000000
2014-10-15 12:10:39,0.09,3.19,0.00,23.27,27.52,30.29,4.85,26.91,1017.11,2033.00,2304.11,2518.47,2706.94,350.23,347.63,34.70,0000 0000 0000 0000 000000
2014-10-15 12:15:41,0.06,3.19,0.00,23.30,27.52,30.33,4.83,26.93,1017.11,2033.00,2303.74,2518.01,2706.14,349.77,347.40,34.73,0000 0000 0000 0000 000000
2014-10-15 12:20:42,0.03,3.20,0.00,23.26,27.52,30.31,4.78,26.90,1017.12,2033.00,2303.03,2517.84,2705.96,349.97,347.37,34.76,0000 0000 0000 0000 000000
2014-10-15 12:25:43,0.11,3.20,0.00,23.26,27.52,30.32,4.73,26.77,1017.12,2033.00,2302.69,2517.10,2705.27,349.98,347.38,34.79,0000 0000 0000 0000 000000
2014-10-15 12:30:44,0.02,3.20,0.00,23.26,27.52,30.29,4.84,26.87,1017.12,2033.00,2302.02,2517.00,2705.01,350.54,347.91,34.82,0000 0000 0000 0000 000000
2014-10-15 12:35:46,0.10,3.20,0.00,23.23,27.52,30.31,4.74,26.82,1017.12,2033.00,2301.46,2516.59,2704.70,349.76,347.39,34.85,0000 0000 0000 0000 000000
2014-10-15 12:40:47,0.05,3.21,0.00,23.26,27.52,30.31,4.72,26.87,1017.13,2033.00,2300.91,2516.02,2704.03,349.58,346.88,34.88,0000 0000 0000 0000 000000
2014-10-15 12:45:48,0.05,3.21,0.00,23.26,27.52,30.31,4.81,26.86,1017.13,2032.99,2300.09,2515.96,2703.89,349.73,347.36,34.91,0000 0000 0000 0000 000000
2014-10-15 12:50:49,0.10,3.21,0.00,23.23,27.53,30.33,4.78,26.72,1017.13,2032.99,2299.74,2515.31,2703.16,349.79,347.73,34.93,0000 0000 0000 0000 000000
2014-10-15 12:55:51,0.03,3.21,0.00,23.25,27.53,30.32,4.78,26.83,1017.13,2032.99,2299.03,2515.00,2702.99,349.88,347.46,34.96,0000 0000 0000 0000 000000
2014-10-15 13:00:52,0.03,1.28,0.00,23.23,27.54,30.30,4.23,23.34,1017.13,2034.86,3065.72,3030.08,3281.27,306.93,304.52,0.01,0000 0000 0000 0000 000002